Change the Weather History Date:

Monday, January 2, 2012

  Actual Average Record
Temperature  
Mean Temperature 10 °F -  
Max Temperature 15 °F 21 °F 40 °F (1962)
Min Temperature 5 °F 2 °F -24 °F (1985)
Degree Days  
Heating Degree Days 55    
Moisture  
Dew Point 4 °F    
Average Humidity 72    
Maximum Humidity 85    
Minimum Humidity 58    
Precipitation  
Precipitation 0.00 in - - ()
Sea Level Pressure  
Sea Level Pressure 30.45 in    
Wind  
Wind Speed 16 mph (NW)    
Max Wind Speed 24 mph    
Max Gust Speed 31 mph    
Visibility 10 miles    
Events      
Averages and records for this station are not official NWS values.
T = Trace of Precipitation, MM = Missing Value Source: NWS Daily Summary

Daily Weather History Graph

Daily Weather History Graph

Search for Another Location

Airport or City:

Trip Planner

Search our weather history database for the weather conditions in past years. The results will help you decide how hot, cold, wet, or windy it might be!

Date:

Astronomy

Jan. 02, 2012 Rise Set
Actual Time 8:01 AM CST 4:48 PM CST
Civil Twilight 7:27 AM CST 5:22 PM CST
Nautical Twilight 6:50 AM CST 6:00 PM CST
Astronomical Twilight 6:14 AM CST 6:36 PM CST
Moon 12:13 PM CST (1/2) 1:47 AM CST (1/2)
Length of Visible Light 9h 54m
Length of Day
8h 46m
Waxing Gibbous, 64% of the Moon is Illuminated
Jan 2
Waxing Gibbous
Jan 9
Full
Jan 16
Last Quarter
Jan 23
New
Jan 30
First Quarter

Hourly Weather History & Observations

Time (CST) Temp. Windchill Dew Point Humidity Pressure Visibility Wind Dir Wind Speed Gust Speed Precip Events Conditions
12:14 AM 15.8 °F -1.1 °F 8.6 °F 73% 30.37 in 10.0 mi WNW 19.6 mph 26.5 mph N/A   Scattered Clouds
12:33 AM 14.0 °F -3.4 °F 8.6 °F 79% 30.37 in 10.0 mi WNW 19.6 mph 25.3 mph N/A   Scattered Clouds
12:54 AM 14.0 °F -3.9 °F 8.6 °F 79% 30.36 in 10.0 mi WNW 20.7 mph 26.5 mph N/A   Mostly Cloudy
1:14 AM 14.0 °F -4.3 °F 6.8 °F 73% 30.36 in 10.0 mi WNW 21.9 mph 28.8 mph N/A   Scattered Clouds
1:34 AM 14.0 °F -3.9 °F 6.8 °F 73% 30.36 in 10.0 mi WNW 20.7 mph 27.6 mph N/A   Mostly Cloudy
1:53 AM 14.0 °F -5.1 °F 6.8 °F 73% 30.36 in 10.0 mi WNW 24.2 mph 31.1 mph N/A   Scattered Clouds
2:13 AM 14.0 °F -5.1 °F 6.8 °F 73% 30.37 in 10.0 mi WNW 24.2 mph 31.1 mph N/A   Scattered Clouds
2:34 AM 12.2 °F -6.3 °F 6.8 °F 79% 30.37 in 10.0 mi WNW 20.7 mph 28.8 mph N/A   Clear
2:54 AM 12.2 °F -6.3 °F 6.8 °F 79% 30.38 in 10.0 mi WNW 20.7 mph 26.5 mph N/A   Clear
3:14 AM 12.2 °F -5.3 °F 5.0 °F 73% 30.38 in 10.0 mi WNW 18.4 mph 24.2 mph N/A   Clear
3:34 AM 12.2 °F -5.3 °F 5.0 °F 73% 30.38 in 10.0 mi WNW 18.4 mph 24.2 mph N/A   Scattered Clouds
3:54 AM 10.4 °F -6.6 °F 5.0 °F 79% 30.39 in 10.0 mi WNW 16.1 mph 21.9 mph N/A   Scattered Clouds
4:13 AM 10.4 °F -6.6 °F 5.0 °F 79% 30.39 in 10.0 mi WNW 16.1 mph 20.7 mph N/A   Clear
4:34 AM 10.4 °F -7.2 °F 5.0 °F 79% 30.40 in 10.0 mi WNW 17.3 mph 21.9 mph N/A   Mostly Cloudy
4:53 AM 10.4 °F -6.6 °F 5.0 °F 79% 30.41 in 10.0 mi WNW 16.1 mph 24.2 mph N/A   Scattered Clouds
5:14 AM 10.4 °F -5.4 °F 3.2 °F 73% 30.42 in 10.0 mi WNW 13.8 mph - N/A   Clear
5:33 AM 10.4 °F -6.6 °F 3.2 °F 73% 30.42 in 10.0 mi WNW 16.1 mph - N/A   Clear
5:53 AM 10.4 °F -6.6 °F 3.2 °F 73% 30.43 in 10.0 mi WNW 16.1 mph - N/A   Clear
6:13 AM 10.4 °F -7.2 °F 3.2 °F 73% 30.44 in 10.0 mi WNW 17.3 mph 21.9 mph N/A   Clear
6:54 AM 8.6 °F -8.9 °F 3.2 °F 79% 30.45 in 10.0 mi NW 16.1 mph 20.7 mph N/A   Clear
7:14 AM 8.6 °F -7.7 °F 3.2 °F 79% 30.45 in 10.0 mi NW 13.8 mph 21.9 mph N/A   Clear
7:34 AM 8.6 °F -6.3 °F 1.4 °F 73% 30.46 in 10.0 mi NW 11.5 mph - N/A   Clear
7:53 AM 6.8 °F -9.3 °F 1.4 °F 79% 30.46 in 10.0 mi NW 12.7 mph - N/A   Clear
8:14 AM 8.6 °F -8.9 °F 1.4 °F 73% 30.47 in 10.0 mi NW 16.1 mph - N/A   Clear
8:34 AM 8.6 °F -8.3 °F 1.4 °F 73% 30.49 in 10.0 mi NNW 15.0 mph 19.6 mph N/A   Clear
8:53 AM 8.6 °F -8.9 °F 1.4 °F 73% 30.50 in 10.0 mi NNW 16.1 mph - N/A   Clear
9:14 AM 10.4 °F -6.6 °F 1.4 °F 67% 30.50 in 10.0 mi NNW 16.1 mph 20.7 mph N/A   Clear
9:33 AM 10.4 °F -7.2 °F 1.4 °F 67% 30.51 in 10.0 mi NNW 17.3 mph 21.9 mph N/A   Clear
9:53 AM 10.4 °F -6.6 °F 1.4 °F 67% 30.52 in 10.0 mi NNW 16.1 mph 23.0 mph N/A   Clear
10:13 AM 10.4 °F -6.0 °F 3.2 °F 73% 30.52 in 10.0 mi NNW 15.0 mph 25.3 mph N/A   Clear
10:33 AM 10.4 °F -7.7 °F 3.2 °F 73% 30.52 in 10.0 mi NW 18.4 mph - N/A   Clear
10:54 AM 12.2 °F -4.3 °F 3.2 °F 67% 30.52 in 10.0 mi NNW 16.1 mph 19.6 mph N/A   Clear
11:14 AM 12.2 °F -4.3 °F 3.2 °F 67% 30.52 in 10.0 mi NNW 16.1 mph 21.9 mph N/A   Clear
11:34 AM 12.2 °F -2.5 °F 3.2 °F 67% 30.52 in 10.0 mi NW 12.7 mph - N/A   Clear
12:13 PM 14.0 °F -0.8 °F 3.2 °F 62% 30.52 in 10.0 mi NNW 13.8 mph 18.4 mph N/A   Clear
12:34 PM 15.8 °F 1.4 °F 3.2 °F 58% 30.52 in 10.0 mi NW 13.8 mph 19.6 mph N/A   Clear
1:13 PM 15.8 °F 1.4 °F 5.0 °F 62% 30.51 in 10.0 mi NW 13.8 mph - N/A   Clear
1:54 PM 15.8 °F 2.7 °F 5.0 °F 62% 30.50 in 10.0 mi NW 11.5 mph - N/A   Clear
2:14 PM 15.8 °F 4.2 °F 3.2 °F 58% 30.49 in 10.0 mi NW 9.2 mph - N/A   Clear
2:33 PM 15.8 °F 2.7 °F 5.0 °F 62% 30.49 in 10.0 mi WNW 11.5 mph - N/A   Clear
2:53 PM 15.8 °F 2.7 °F 3.2 °F 58% 30.50 in 10.0 mi WNW 11.5 mph - N/A   Clear
3:14 PM 15.8 °F 2.7 °F 3.2 °F 58% 30.50 in 10.0 mi WNW 11.5 mph - N/A   Clear
3:33 PM 15.8 °F 3.4 °F 5.0 °F 62% 30.49 in 10.0 mi WNW 10.4 mph - N/A   Clear
3:53 PM 15.8 °F 4.2 °F 6.8 °F 68% 30.50 in 10.0 mi WNW 9.2 mph - N/A   Clear
4:14 PM 12.2 °F 0.7 °F 5.0 °F 73% 30.49 in 10.0 mi WNW 8.1 mph - N/A   Clear
4:34 PM 12.2 °F 2.9 °F 3.2 °F 67% 30.48 in 10.0 mi WNW 5.8 mph - N/A   Clear
4:54 PM 10.4 °F 2.2 °F 3.2 °F 73% 30.48 in 10.0 mi WNW 4.6 mph - N/A   Clear
5:14 PM 8.6 °F -2.6 °F 1.4 °F 73% 30.49 in 10.0 mi West 6.9 mph - N/A   Clear
5:34 PM 8.6 °F -2.6 °F 3.2 °F 79% 30.50 in 10.0 mi West 6.9 mph - N/A   Clear
6:14 PM 6.8 °F -4.8 °F 1.4 °F 79% 30.47 in 10.0 mi West 6.9 mph - N/A   Clear
6:34 PM 6.8 °F -4.8 °F 1.4 °F 79% 30.46 in 10.0 mi WNW 6.9 mph - N/A   Clear
6:54 PM 6.8 °F -2.0 °F 1.4 °F 79% 30.46 in 10.0 mi WNW 4.6 mph - N/A   Clear
7:13 PM 6.8 °F -0.1 °F 1.4 °F 79% 30.46 in 10.0 mi WNW 3.5 mph - N/A   Clear
7:34 PM 6.8 °F -0.1 °F 1.4 °F 79% 30.47 in 10.0 mi NW 3.5 mph - N/A   Clear
7:53 PM 6.8 °F -0.1 °F 1.4 °F 79% 30.46 in 10.0 mi NW 3.5 mph - N/A   Clear
8:13 PM 5.0 °F - 1.4 °F 85% 30.44 in 10.0 mi Calm Calm - N/A   Clear
8:34 PM 6.8 °F - 1.4 °F 79% 30.43 in 10.0 mi Calm Calm - N/A   Clear
8:53 PM 8.6 °F - 3.2 °F 79% 30.44 in 10.0 mi Calm Calm - N/A   Clear
9:14 PM 8.6 °F - 3.2 °F 79% 30.43 in 10.0 mi Calm Calm - N/A   Clear
9:33 PM 8.6 °F - 3.2 °F 79% 30.42 in 10.0 mi Calm Calm - N/A   Clear
9:53 PM 10.4 °F - 5.0 °F 79% 30.42 in 10.0 mi Calm Calm - N/A   Clear
10:14 PM 10.4 °F - 5.0 °F 79% 30.42 in 10.0 mi Calm Calm - N/A   Clear
10:34 PM 10.4 °F - 6.8 °F 85% 30.41 in 10.0 mi Calm Calm - N/A   Clear
10:54 PM 10.4 °F - 6.8 °F 85% 30.40 in 10.0 mi Calm Calm - N/A   Clear
11:13 PM 10.4 °F - 6.8 °F 85% 30.39 in 10.0 mi Calm Calm - N/A   Clear
11:33 PM 10.4 °F - 6.8 °F 85% 30.37 in 10.0 mi Calm Calm - N/A   Clear
11:54 PM 10.4 °F 2.2 °F 6.8 °F 85% 30.36 in 10.0 mi SE 4.6 mph - N/A   Clear